Regional Weather Roundup
Issued by NWS New Orleans/Baton Rouge, LA

Home | Current Version | Previous Version | Text Only | Print | Product List | Glossary On
Versions: 1 2 3 4 5 6 7 8 9 10 11 12 13 14 15 16 17 18 19 20 21 22 23 24 25 26 27 28 29 30 31 32 33 34 35 36 37 38 39 40 41 42 43 44 45 46 47 48 49 50
768
ASUS44 KLIX 291407
RWRLIX
NEW ORLEANS REGIONAL WEATHER ROUNDUP
NATIONAL WEATHER SERVICE NEW ORLEANS LA
900 AM CDT SUN MAR 29 2015

NOTE: "FAIR" INDICATES FEW OR NO CLOUDS BELOW 12,000 FEET WITH NO
      SIGNIFICANT WEATHER AND/OR OBSTRUCTIONS TO VISIBILITY.
      SKY/WX - SKY CONDITION AND SIGNIFICANT WEATHER.
      TMP - AIR TEMPERATURE.     DP    - DEWPOINT TEMPERATURE.
      RH  - RELATIVE HUMIDITY.   PRES  - PRESSURE.
      HI  - HEAT INDEX.          WCI   - WIND CHILL INDEX.

*  THESE STATIONS ARE NOT NWS OR FAA STATIONS AND ARE NOT UNDER
   NWS QUALITY CONTROL.

LAZ038-040-048-061>063-065>067-069-291500-
SOUTHEAST LOUISIANA

CITY           SKY/WX    TMP DP  RH WIND       PRES   REMARKS
N.O. AUDUBON   NOT AVBL
N.O. INTL ARPT MOSUNNY   64  52  64 SE14      30.28R
N.O. LAKEFRONT SUNNY     66  52  60 SE18G26   30.29S
SLIDELL        SUNNY     57  48  72 VRB7      30.30R
BATON ROUGE    SUNNY     55  47  74 E10       30.28R
BOOTHVILLE     MOSUNNY   64  57  78 E8        30.31R
BELLE CHASSE   MOSUNNY   63  54  72 E12       30.29R
BOGALUSA*        N/A     52  36  54 SE7       30.33S
GALLIANO*      CLOUDY    67  61  81 MISG      30.29R
NEW ROADS*       N/A     54  46  74 E10       30.28R
GONZALES*        N/A     61  57  88 E7        30.28R
HAMMOND*       MOSUNNY   57  43  58 E7        30.31S
HOUMA*         MOSUNNY   63  61  94 SE9       30.28
PORT FOURCHON* PTSUNNY   68  63  83 SE12      30.31R

$$

MSZ070-080>082-291500-
SOUTHERN MISSISSIPPI

CITY           SKY/WX    TMP DP  RH WIND       PRES   REMARKS
MCCOMB         MOSUNNY   50  37  61 SE7       30.30R
GULFPORT       SUNNY     54  42  64 E14       30.32S
BILOXI         SUNNY     54  41  61 E9        30.32S
PASCAGOULA     SUNNY     53  38  56 E9        30.35R
STENNIS ARPT*  MOSUNNY   54  39  58 E6        30.32R

$$

COASTAL OBSERVATIONS
LAKE AND NEARSHORE STATIONS

STATION/POSITION TIME  TEMP    WIND        PRES    WAVE
                       AIR SEA DIR/SP/G            HT/PER
                 (UTC) (F)     (DEG/KT/KT) (MB)    (FT/S)
PASCAGOULA       1300   52      70/ 17/ 19 1026.7
WAVELAND YACHT   1300   51 61   90/  6/  8 1026.2
GRAND ISLE       1300   64 66  100/  7/ 12 1024.8
SOUTHWEST PASS   1300   61 53   90/  9/ 10 1025.6
NEW CANAL        1300   61     120/  2/  8 1025.6
SHELL BEACH      1300   61 65  100/ 11/ 13 1025.7

OFFSHORE STATIONS

STATION/POSITION TIME  TEMP    WIND        PRES    WAVE
                       AIR SEA DIR/SP/G            HT/PER
                 (UTC) (F)     (DEG/KT/KT) (MB)    (FT/S)
64 S DAUPHIN ISL 1350   65 71  120/ 14/ 16 1027.0    2/ 3

$$




USA.gov is the U.S. government's official web portal to all federal, state and local government web resources and services.